Flag for U.S.A. Weather past 2 weeks in Carson City, Nevada, U.S.A.

56 °F


Feels Like: 55 °F
Forecast: 46 / 77 °F
Wind: 5 mph from Southwest

Location: Reno Tahoe International Airport

Current Time: Oct 7, 2015 at 2:29:31 AM

Latest Report: Oct 7, 2015 at 1:55 AM

Visibility: 10 mi

Pressure: 30.11 "Hg (25.41 "Hg at 1425m altitude)

Humidity: 60%

Dew point: 42 °F

Location of Carson CityLocation

Historic Weather in Carson City — Graph


Carson City temperature yesterday

Maximum temperature yesterday: 78 °F (at 2:55 PM)
Minimum temperature yesterday: 49 °F (at 5:55 AM)
Average temperature yesterday: 63 °F

Past Weeks' High & Low Weather Summary

High91 °F (Sep 25, 2:55 PM)90% (Oct 1, 5:55 AM)30.12 "Hg (Oct 1, 5:55 AM)
Low45 °F (Oct 3, 6:55 AM)7% (Sep 23, 2:55 PM)29.42 "Hg (Oct 3, 4:55 PM)
Average66 °F42%29.89 "Hg
* Reported Sep 22 12:55 AM — Oct 7 12:55 AM, Carson City, Weather by CustomWeather, © 2015

Note: Actual official high and low records may vary slightly from our data, if they occured in-between our weather recording intervals... More about our weather records


Carson City weather history for previous 24 hours

Time TempWeatherWind HumidityBarometerVisibility
12:55 AM
Wed, Oct 7
57 °FClear.3 mph58%30.11 "Hg10 mi
11:55 PM
Tue, Oct 6
60 °FClear.3 mph52%30.09 "Hg10 mi
10:55 PM62 °FClear.3 mph46%30.08 "Hg10 mi
9:55 PM63 °FClear.5 mph45%30.09 "Hg10 mi
8:55 PM66 °FClear.6 mph39%30.07 "Hg10 mi
7:55 PM69 °FPassing clouds.6 mph35%30.05 "Hg10 mi
6:55 PM73 °FPassing clouds.7 mph30%30.03 "Hg10 mi
5:55 PM76 °FScattered clouds.6 mph25%30.02 "Hg10 mi
4:55 PM76 °FScattered clouds.5 mph24%30.02 "Hg10 mi
3:55 PM77 °FScattered clouds.5 mph24%30.02 "Hg10 mi
2:55 PM78 °FPartly sunny.6 mph25%30.02 "Hg10 mi
1:55 PM76 °FPartly sunny.No wind26%30.05 "Hg10 mi
12:55 PM74 °FBroken clouds.5 mph32%30.07 "Hg10 mi
11:55 AM70 °FBroken clouds.No wind38%30.09 "Hg10 mi
10:55 AM64 °FScattered clouds.No wind47%30.12 "Hg10 mi
9:55 AM60 °FPassing clouds.No wind52%30.11 "Hg10 mi
8:55 AM56 °FPassing clouds.No wind58%30.12 "Hg10 mi
7:55 AM52 °FPassing clouds.No wind64%30.10 "Hg10 mi
6:55 AM49 °FPassing clouds.No wind77%30.07 "Hg10 mi
5:55 AM49 °FClear.No wind77%30.06 "Hg10 mi
4:55 AM51 °FClear.No wind71%30.03 "Hg10 mi
3:55 AM52 °FClear.No wind72%30.01 "Hg10 mi
2:55 AM53 °FClear.3 mph66%30.00 "Hg10 mi
Weather by CustomWeather, © 2015

See weather overviewHow to use our weather pages